| time (UTC) | temp F | wind direction | speed MPH | gust MPH | rain 1hr in | rain 24hr in | rain mn in | humidity % | barometer mb |
| 20260906201530 | 90 | 256 | 0.0 | 2.0 | 0.00 | 0.22 | 0.22 | 68 | 1010.4 |
| 20260906201030 | 89 | 135 | 0.0 | 1.0 | 0.00 | 0.22 | 0.22 | 74 | 1010.2 |
| 20260906200526 | 90 | 236 | 2.0 | 2.0 | 0.00 | 0.22 | 0.22 | 71 | 1010.1 |
| 20260906200022 | 89 | 219 | 0.0 | 1.0 | 0.00 | 0.22 | 0.22 | 68 | 1010.3 |
| 20260906195517 | 89 | 220 | 0.0 | 1.0 | 0.00 | 0.22 | 0.22 | 69 | 1010.3 |
| 20260906195013 | 90 | 237 | 3.0 | 4.0 | 0.00 | 0.22 | 0.22 | 65 | 1010.5 |
| 20260906194509 | 91 | 219 | 0.0 | 3.0 | 0.00 | 0.22 | 0.22 | 68 | 1010.5 |
| 20260906194004 | 91 | 233 | 3.0 | 3.0 | 0.00 | 0.22 | 0.22 | 65 | 1010.7 |
| 20260906193504 | 91 | 216 | 3.0 | 4.0 | 0.00 | 0.22 | 0.22 | 69 | 1010.7 |
| 20260906192959 | 91 | 213 | 2.0 | 3.0 | 0.00 | 0.22 | 0.22 | 73 | 1010.7 |
| 20260906192455 | 89 | 126 | 2.0 | 2.0 | 0.00 | 0.22 | 0.22 | 79 | 1010.8 |
| 20260906191954 | 89 | 215 | 2.0 | 4.0 | 0.00 | 0.22 | 0.22 | 85 | 1010.7 |
| 20260906191448 | 89 | 235 | 0.0 | 2.0 | 0.00 | 0.22 | 0.22 | 80 | 1010.7 |
| 20260906190948 | 88 | 169 | 0.0 | 2.0 | 0.00 | 0.22 | 0.22 | 85 | 1011.0 |
| 20260906190446 | 87 | 117 | 1.0 | 2.0 | 0.00 | 0.22 | 0.22 | 86 | 1010.9 |
| 20260906185942 | 86 | 141 | 0.0 | 2.0 | 0.00 | 0.22 | 0.22 | 86 | 1011.1 |
| 20260906185441 | 85 | 157 | 1.0 | 2.0 | 0.00 | 0.22 | 0.22 | 88 | 1011.4 |
| 20260906184940 | 85 | 248 | 2.0 | 3.0 | 0.00 | 0.22 | 0.22 | 89 | 1011.4 |
| 20260906184436 | 84 | 58 | 0.0 | 2.0 | 0.00 | 0.22 | 0.22 | 86 | 1011.5 |
| 20260906183931 | 83 | 206 | 0.0 | 2.0 | 0.00 | 0.22 | 0.22 | 85 | 1011.8 |
| 20260906183427 | 81 | 148 | 2.0 | 2.0 | 0.31 | 0.22 | 0.22 | 81 | 1011.8 |
| 20260906182922 | 82 | 83 | 0.0 | 2.0 | 1.30 | 0.22 | 0.22 | 75 | 1011.6 |
| 20260906182418 | 87 | 224 | 5.0 | 12.0 | 0.85 | 0.14 | 0.14 | 65 | 1012.6 |
| 20260906181914 | 91 | 238 | 3.0 | 4.0 | 0.00 | 0.00 | 0.00 | 62 | 1012.0 |
| 20260906181409 | 91 | 199 | 0.0 | 3.0 | 0.00 | 0.00 | 0.00 | 58 | 1012.0 |
| 20260906180904 | 91 | 262 | 2.0 | 2.0 | 0.00 | 0.00 | 0.00 | 60 | 1012.1 |
| 20260906180359 | 92 | 300 | 4.0 | 4.0 | 0.00 | 0.00 | 0.00 | 58 | 1012.2 |
| 20260906175856 | 93 | 209 | 4.0 | 6.0 | 0.00 | 0.00 | 0.00 | 56 | 1012.0 |
| 20260906175352 | 93 | 272 | 2.0 | 8.0 | 0.00 | 0.00 | 0.00 | 58 | 1011.9 |
| 20260906174851 | 91 | 226 | 0.0 | 3.0 | 0.00 | 0.00 | 0.00 | 60 | 1012.0 |
| 20260906174350 | 91 | 209 | 2.0 | 2.0 | 0.00 | 0.00 | 0.00 | 59 | 1012.1 |
| 20260906173845 | 92 | 235 | 3.0 | 6.0 | 0.00 | 0.00 | 0.00 | 57 | 1012.2 |
| 20260906173341 | 92 | 274 | 3.0 | 8.0 | 0.00 | 0.00 | 0.00 | 60 | 1012.2 |
| 20260906172840 | 92 | 210 | 3.0 | 6.0 | 0.00 | 0.00 | 0.00 | 59 | 1012.4 |
| 20260906172336 | 92 | 234 | 5.0 | 8.0 | 0.00 | 0.00 | 0.00 | 59 | 1012.2 |
| 20260906171831 | 91 | 236 | 2.0 | 9.0 | 0.00 | 0.00 | 0.00 | 59 | 1012.2 |
| 20260906171326 | 91 | 108 | 1.0 | 5.0 | 0.00 | 0.00 | 0.00 | 60 | 1012.4 |
| 20260906170822 | 92 | 269 | 2.0 | 4.0 | 0.00 | 0.00 | 0.00 | 59 | 1012.3 |
| 20260906170318 | 92 | 333 | 3.0 | 8.0 | 0.00 | 0.00 | 0.00 | 60 | 1012.5 |
| 20260906165814 | 91 | 278 | 4.0 | 6.0 | 0.00 | 0.00 | 0.00 | 60 | 1012.6 |
| 20260906165313 | 90 | 233 | 3.0 | 9.0 | 0.00 | 0.00 | 0.00 | 62 | 1012.5 |
| 20260906164808 | 91 | 282 | 4.0 | 9.0 | 0.00 | 0.00 | 0.00 | 59 | 1012.7 |
| 20260906164308 | 91 | 284 | 4.0 | 7.0 | 0.00 | 0.00 | 0.00 | 61 | 1012.7 |
| 20260906163804 | 91 | 257 | 3.0 | 4.0 | 0.00 | 0.00 | 0.00 | 59 | 1012.8 |
| 20260906163300 | 92 | 297 | 4.0 | 6.0 | 0.00 | 0.00 | 0.00 | 60 | 1012.8 |
| 20260906162757 | 91 | 252 | 4.0 | 10.0 | 0.00 | 0.00 | 0.00 | 61 | 1012.8 |
| 20260906162256 | 90 | 265 | 5.0 | 8.0 | 0.00 | 0.00 | 0.00 | 60 | 1012.9 |
| 20260906161756 | 90 | 284 | 4.0 | 4.0 | 0.00 | 0.00 | 0.00 | 62 | 1013.0 |
| 20260906161255 | 89 | 257 | 2.0 | 3.0 | 0.00 | 0.00 | 0.00 | 63 | 1013.1 |
| 20260906160754 | 89 | 198 | 2.0 | 5.0 | 0.00 | 0.00 | 0.00 | 64 | 1013.3 |
| 20260906160249 | 90 | 267 | 3.0 | 4.0 | 0.00 | 0.00 | 0.00 | 62 | 1013.3 |
| 20260906155747 | 90 | 171 | 0.0 | 3.0 | 0.00 | 0.00 | 0.00 | 63 | 1013.4 |
| 20260906155242 | 90 | 276 | 3.0 | 4.0 | 0.00 | 0.00 | 0.00 | 61 | 1013.4 |
| 20260906154737 | 91 | 293 | 2.0 | 4.0 | 0.00 | 0.00 | 0.00 | 61 | 1013.4 |
| 20260906154232 | 90 | 266 | 0.0 | 4.0 | 0.00 | 0.00 | 0.00 | 61 | 1013.5 |
| 20260906153731 | 90 | 267 | 4.0 | 6.0 | 0.00 | 0.00 | 0.00 | 62 | 1013.5 |
| 20260906153225 | 91 | 309 | 1.0 | 6.0 | 0.00 | 0.00 | 0.00 | 61 | 1013.5 |
| 20260906152720 | 91 | 293 | 0.0 | 3.0 | 0.00 | 0.00 | 0.00 | 61 | 1013.2 |
| 20260906152215 | 91 | 219 | 2.0 | 7.0 | 0.00 | 0.00 | 0.00 | 62 | 1013.7 |
| 20260906151709 | 90 | 297 | 2.0 | 3.0 | 0.00 | 0.00 | 0.00 | 64 | 1013.5 |
| 20260906151205 | 89 | 257 | 3.0 | 6.0 | 0.00 | 0.00 | 0.00 | 64 | 1013.6 |
| 20260906150701 | 89 | 324 | 4.0 | 9.0 | 0.00 | 0.00 | 0.00 | 65 | 1013.5 |
| 20260906150156 | 89 | 306 | 4.0 | 6.0 | 0.00 | 0.00 | 0.00 | 65 | 1013.7 |
| 20260906145655 | 89 | 246 | 3.0 | 6.0 | 0.00 | 0.00 | 0.00 | 67 | 1013.6 |
| 20260906145154 | 89 | 253 | 5.0 | 6.0 | 0.00 | 0.00 | 0.00 | 65 | 1013.4 |
| 20260906144654 | 90 | 240 | 1.0 | 5.0 | 0.00 | 0.00 | 0.00 | 67 | 1013.4 |
| 20260906144149 | 89 | 153 | 1.0 | 5.0 | 0.00 | 0.00 | 0.00 | 66 | 1013.4 |
| 20260906143649 | 88 | 264 | 2.0 | 6.0 | 0.00 | 0.00 | 0.00 | 66 | 1013.7 |
| 20260906143146 | 88 | 289 | 2.0 | 4.0 | 0.00 | 0.00 | 0.00 | 69 | 1013.6 |
| 20260906142646 | 88 | 267 | 4.0 | 4.0 | 0.00 | 0.00 | 0.00 | 68 | 1013.5 |
| 20260906142141 | 89 | 276 | 2.0 | 5.0 | 0.00 | 0.00 | 0.00 | 67 | 1013.5 |
| 20260906141639 | 89 | 269 | 1.0 | 4.0 | 0.00 | 0.00 | 0.00 | 69 | 1013.7 |
| 20260906141135 | 88 | 116 | 1.0 | 2.0 | 0.00 | 0.00 | 0.00 | 72 | 1013.8 |
| 20260906140634 | 87 | 256 | 2.0 | 7.0 | 0.00 | 0.00 | 0.00 | 72 | 1013.4 |
| 20260906140129 | 87 | 238 | 3.0 | 8.0 | 0.00 | 0.00 | 0.00 | 73 | 1013.7 |
| 20260906135626 | 87 | 258 | 2.0 | 5.0 | 0.00 | 0.00 | 0.00 | 71 | 1013.6 |
| 20260906135122 | 87 | 298 | 2.0 | 3.0 | 0.00 | 0.00 | 0.00 | 74 | 1013.6 |
| 20260906134618 | 86 | 260 | 3.0 | 5.0 | 0.00 | 0.00 | 0.00 | 73 | 1013.5 |
| 20260906134113 | 86 | 280 | 3.0 | 4.0 | 0.00 | 0.00 | 0.00 | 75 | 1013.7 |
| 20260906133609 | 86 | 295 | 3.0 | 5.0 | 0.00 | 0.00 | 0.00 | 75 | 1013.7 |
| 20260906133109 | 86 | 207 | 2.0 | 3.0 | 0.00 | 0.00 | 0.00 | 75 | 1013.4 |
| 20260906132604 | 85 | 216 | 0.0 | 4.0 | 0.00 | 0.00 | 0.00 | 77 | 1013.7 |
| 20260906132059 | 85 | 255 | 4.0 | 4.0 | 0.00 | 0.00 | 0.00 | 78 | 1013.8 |
| 20260906131555 | 85 | 244 | 3.0 | 5.0 | 0.00 | 0.00 | 0.00 | 79 | 1013.8 |
| 20260906131050 | 84 | 236 | 1.0 | 4.0 | 0.00 | 0.00 | 0.00 | 80 | 1013.8 |
| 20260906130549 | 84 | 242 | 3.0 | 5.0 | 0.00 | 0.00 | 0.00 | 80 | 1014.0 |
| 20260906130045 | 84 | 248 | 2.0 | 4.0 | 0.00 | 0.00 | 0.00 | 80 | 1013.9 |
| 20260906125542 | 84 | 220 | 2.0 | 2.0 | 0.00 | 0.00 | 0.00 | 82 | 1013.9 |
| 20260906125042 | 83 | 305 | 0.0 | 3.0 | 0.00 | 0.00 | 0.00 | 82 | 1013.9 |
| 20260906124538 | 83 | 267 | 2.0 | 3.0 | 0.00 | 0.00 | 0.00 | 82 | 1013.8 |
| 20260906124033 | 83 | 303 | 2.0 | 3.0 | 0.00 | 0.00 | 0.00 | 84 | 1013.8 |
| 20260906123532 | 83 | 320 | 1.0 | 2.0 | 0.00 | 0.00 | 0.00 | 85 | 1013.7 |
| 20260906123028 | 83 | 278 | 0.0 | 1.0 | 0.00 | 0.00 | 0.00 | 87 | 1013.7 |
| 20260906122527 | 81 | 79 | 0.0 | 1.0 | 0.00 | 0.00 | 0.00 | 89 | 1013.7 |
| 20260906122023 | 80 | 184 | 1.0 | 2.0 | 0.00 | 0.00 | 0.00 | 90 | 1013.8 |
| 20260906121519 | 80 | 335 | 0.0 | 2.0 | 0.00 | 0.00 | 0.00 | 92 | 1013.6 |
| 20260906121016 | 79 | 263 | 2.0 | 3.0 | 0.00 | 0.00 | 0.00 | 94 | 1013.4 |
| 20260906120516 | 78 | 259 | 3.0 | 4.0 | 0.00 | 0.00 | 0.00 | 95 | 1013.8 |
| 20260906120014 | 77 | 274 | 2.0 | 2.0 | 0.00 | 0.00 | 0.00 | 96 | 1013.6 |
| 20260906115513 | 77 | 269 | 0.0 | 1.0 | 0.00 | 0.00 | 0.00 | 96 | 1013.5 |
| 20260906115008 | 77 | 326 | 0.0 | 1.0 | 0.00 | 0.00 | 0.00 | 96 | 1013.5 |
| 20260906114502 | 76 | 342 | 0.0 | 1.0 | 0.00 | 0.00 | 0.00 | 96 | 1013.5 |
| 20260906113958 | 76 | 341 | 0.0 | 1.0 | 0.00 | 0.00 | 0.00 | 96 | 1013.6 |
| 20260906113456 | 76 | 344 | 1.0 | 2.0 | 0.00 | 0.00 | 0.00 | 96 | 1013.6 |
| 20260906112952 | 76 | 6 | 1.0 | 1.0 | 0.00 | 0.00 | 0.00 | 96 | 1013.2 |
| 20260906112447 | 76 | 311 | 0.0 | 1.0 | 0.00 | 0.00 | 0.00 | 96 | 1013.5 |
| 20260906111943 | 76 | 328 | 0.0 | 0.0 | 0.00 | 0.00 | 0.00 | 96 | 1013.4 |
| 20260906111442 | 76 | 328 | 0.0 | 0.0 | 0.00 | 0.00 | 0.00 | 95 | 1013.1 |
| 20260906110937 | 76 | 319 | 0.0 | 0.0 | 0.00 | 0.00 | 0.00 | 95 | 1013.2 |
| 20260906110433 | 76 | 312 | 0.0 | 1.0 | 0.00 | 0.00 | 0.00 | 95 | 1012.8 |
| 20260906105932 | 76 | 315 | 0.0 | 0.0 | 0.00 | 0.00 | 0.00 | 95 | 1012.6 |
| 20260906105428 | 76 | 27 | 0.0 | 0.0 | 0.00 | 0.00 | 0.00 | 95 | 1012.8 |
| 20260906104924 | 76 | 25 | 0.0 | 1.0 | 0.00 | 0.00 | 0.00 | 95 | 1012.9 |
| 20260906104422 | 76 | 228 | 0.0 | 0.0 | 0.00 | 0.00 | 0.00 | 95 | 1012.6 |
| 20260906103922 | 76 | 315 | 0.0 | 0.0 | 0.00 | 0.00 | 0.00 | 95 | 1012.7 |
| 20260906103419 | 76 | 315 | 0.0 | 0.0 | 0.00 | 0.00 | 0.00 | 95 | 1012.6 |
| 20260906102915 | 76 | 236 | 0.0 | 0.0 | 0.00 | 0.00 | 0.00 | 95 | 1012.5 |
| 20260906102415 | 76 | 335 | 0.0 | 1.0 | 0.00 | 0.00 | 0.00 | 95 | 1012.1 |
| 20260906101909 | 76 | 340 | 0.0 | 1.0 | 0.00 | 0.00 | 0.00 | 94 | 1012.0 |
| 20260906101405 | 76 | 311 | 0.0 | 1.0 | 0.00 | 0.00 | 0.00 | 94 | 1011.9 |
| 20260906100901 | 76 | 319 | 0.0 | 0.0 | 0.00 | 0.00 | 0.00 | 93 | 1012.4 |
| 20260906100400 | 76 | 308 | 0.0 | 0.0 | 0.00 | 0.00 | 0.00 | 94 | 1012.1 |
| 20260906095854 | 76 | 323 | 0.0 | 0.0 | 0.00 | 0.00 | 0.00 | 93 | 1011.9 |
| 20260906095350 | 76 | 248 | 0.0 | 1.0 | 0.00 | 0.00 | 0.00 | 93 | 1012.1 |
| 20260906094849 | 77 | 269 | 0.0 | 1.0 | 0.00 | 0.00 | 0.00 | 92 | 1012.0 |
| 20260906094344 | 77 | 31 | 0.0 | 0.0 | 0.00 | 0.00 | 0.00 | 92 | 1012.0 |
| 20260906093841 | 77 | 337 | 0.0 | 1.0 | 0.00 | 0.00 | 0.00 | 92 | 1011.8 |
| 20260906093337 | 77 | 269 | 0.0 | 1.0 | 0.00 | 0.00 | 0.00 | 92 | 1011.9 |
| 20260906092831 | 77 | 359 | 0.0 | 1.0 | 0.00 | 0.00 | 0.00 | 91 | 1011.8 |
| 20260906092331 | 77 | 307 | 0.0 | 0.0 | 0.00 | 0.00 | 0.00 | 91 | 1011.8 |
| 20260906091827 | 77 | 17 | 0.0 | 0.0 | 0.00 | 0.00 | 0.00 | 91 | 1011.7 |
| 20260906091323 | 78 | 275 | 0.0 | 1.0 | 0.00 | 0.00 | 0.00 | 90 | 1011.6 |
| 20260906090819 | 78 | 312 | 0.0 | 2.0 | 0.00 | 0.00 | 0.00 | 90 | 1011.7 |
| 20260906090318 | 78 | 329 | 0.0 | 2.0 | 0.00 | 0.00 | 0.00 | 90 | 1011.7 |
| 20260906085818 | 78 | 11 | 0.0 | 2.0 | 0.00 | 0.00 | 0.00 | 90 | 1011.7 |
| 20260906085317 | 78 | 334 | 0.0 | 2.0 | 0.00 | 0.00 | 0.00 | 89 | 1011.7 |
| 20260906084812 | 78 | 255 | 0.0 | 2.0 | 0.00 | 0.00 | 0.00 | 89 | 1011.7 |
| 20260906084312 | 78 | 263 | 3.0 | 3.0 | 0.00 | 0.00 | 0.00 | 89 | 1011.6 |
| 20260906083807 | 78 | 244 | 1.0 | 3.0 | 0.00 | 0.00 | 0.00 | 89 | 1011.5 |
| 20260906083303 | 78 | 323 | 0.0 | 2.0 | 0.00 | 0.00 | 0.00 | 89 | 1011.7 |
| 20260906082757 | 78 | 206 | 1.0 | 2.0 | 0.00 | 0.00 | 0.00 | 89 | 1011.7 |
| 20260906082252 | 78 | 264 | 0.0 | 2.0 | 0.00 | 0.00 | 0.00 | 89 | 1011.9 |
| 20260906081748 | 78 | 43 | 0.0 | 1.0 | 0.00 | 0.00 | 0.00 | 89 | 1011.6 |
| 20260906081243 | 78 | 269 | 0.0 | 2.0 | 0.00 | 0.00 | 0.00 | 89 | 1011.5 |
| 20260906080739 | 78 | 224 | 3.0 | 3.0 | 0.00 | 0.00 | 0.00 | 89 | 1011.3 |
| 20260906080236 | 78 | 222 | 1.0 | 4.0 | 0.00 | 0.00 | 0.00 | 89 | 1011.3 |
| 20260906075736 | 78 | 260 | 3.0 | 5.0 | 0.00 | 0.00 | 0.00 | 89 | 1011.1 |
| 20260906075236 | 78 | 261 | 3.0 | 4.0 | 0.00 | 0.00 | 0.00 | 89 | 1011.3 |
| 20260906074731 | 78 | 259 | 1.0 | 2.0 | 0.00 | 0.00 | 0.00 | 89 | 1011.4 |
| 20260906074230 | 78 | 195 | 1.0 | 4.0 | 0.00 | 0.00 | 0.00 | 89 | 1011.4 |
| 20260906073730 | 78 | 253 | 3.0 | 4.0 | 0.00 | 0.00 | 0.00 | 89 | 1011.4 |
| 20260906073225 | 78 | 196 | 1.0 | 1.0 | 0.00 | 0.00 | 0.00 | 89 | 1011.5 |
| 20260906072721 | 78 | 289 | 0.0 | 0.0 | 0.00 | 0.00 | 0.00 | 89 | 1011.6 |
| 20260906072216 | 78 | 251 | 1.0 | 3.0 | 0.00 | 0.00 | 0.00 | 88 | 1011.5 |
| 20260906071712 | 78 | 225 | 1.0 | 3.0 | 0.00 | 0.00 | 0.00 | 88 | 1011.8 |
| 20260906071212 | 78 | 234 | 1.0 | 2.0 | 0.00 | 0.00 | 0.00 | 89 | 1011.7 |
| 20260906070709 | 79 | 319 | 0.0 | 1.0 | 0.00 | 0.00 | 0.00 | 88 | 1011.7 |
| 20260906070204 | 79 | 271 | 1.0 | 2.0 | 0.00 | 0.00 | 0.00 | 88 | 1011.9 |
| 20260906065703 | 79 | 273 | 1.0 | 2.0 | 0.00 | 0.00 | 0.00 | 87 | 1011.8 |
| 20260906065159 | 79 | 252 | 3.0 | 4.0 | 0.00 | 0.00 | 0.00 | 87 | 1011.9 |
| 20260906064654 | 79 | 238 | 2.0 | 4.0 | 0.00 | 0.00 | 0.00 | 87 | 1012.0 |
| 20260906064150 | 79 | 237 | 1.0 | 2.0 | 0.00 | 0.00 | 0.00 | 87 | 1012.2 |
| 20260906063645 | 79 | 251 | 0.0 | 2.0 | 0.00 | 0.00 | 0.00 | 87 | 1012.4 |
| 20260906063140 | 79 | 233 | 2.0 | 3.0 | 0.00 | 0.00 | 0.00 | 86 | 1012.3 |
| 20260906062636 | 79 | 235 | 3.0 | 4.0 | 0.00 | 0.00 | 0.00 | 86 | 1012.2 |
| 20260906062135 | 79 | 220 | 0.0 | 2.0 | 0.00 | 0.00 | 0.00 | 86 | 1012.4 |
| 20260906061631 | 79 | 242 | 2.0 | 4.0 | 0.00 | 0.00 | 0.00 | 86 | 1012.5 |
| 20260906061131 | 79 | 221 | 2.0 | 3.0 | 0.00 | 0.00 | 0.00 | 86 | 1012.5 |
| 20260906060628 | 79 | 209 | 4.0 | 4.0 | 0.00 | 0.00 | 0.00 | 86 | 1012.5 |
| 20260906060125 | 79 | 216 | 0.0 | 2.0 | 0.00 | 0.00 | 0.00 | 86 | 1012.8 |
| 20260906055621 | 80 | 255 | 2.0 | 3.0 | 0.00 | 0.00 | 0.00 | 85 | 1012.8 |
| 20260906055121 | 80 | 242 | 1.0 | 3.0 | 0.00 | 0.00 | 0.00 | 85 | 1012.9 |
| 20260906054616 | 80 | 255 | 3.0 | 5.0 | 0.00 | 0.00 | 0.00 | 85 | 1012.9 |
| 20260906054111 | 80 | 257 | 3.0 | 4.0 | 0.00 | 0.00 | 0.00 | 85 | 1012.7 |
| 20260906053608 | 80 | 207 | 2.0 | 3.0 | 0.00 | 0.00 | 0.00 | 85 | 1012.7 |
| 20260906053103 | 80 | 255 | 3.0 | 5.0 | 0.00 | 0.00 | 0.00 | 85 | 1012.9 |
| 20260906052558 | 80 | 180 | 4.0 | 5.0 | 0.00 | 0.00 | 0.00 | 84 | 1012.9 |
| 20260906052055 | 80 | 249 | 3.0 | 3.0 | 0.00 | 0.00 | 0.00 | 85 | 1013.1 |
| 20260906051556 | 80 | 260 | 3.0 | 5.0 | 0.00 | 0.00 | 0.00 | 84 | 1013.0 |
| 20260906051051 | 80 | 264 | 2.0 | 2.0 | 0.00 | 0.00 | 0.00 | 85 | 1013.3 |
| 20260906050546 | 80 | 224 | 2.0 | 3.0 | 0.00 | 0.00 | 0.00 | 85 | 1013.1 |
| 20260906050041 | 80 | 234 | 3.0 | 4.0 | 0.00 | 0.00 | 0.00 | 84 | 1013.2 |
| 20260906045539 | 80 | 260 | 1.0 | 5.0 | 0.00 | 0.00 | 0.00 | 84 | 1013.2 |
| 20260906045035 | 80 | 216 | 4.0 | 5.0 | 0.00 | 0.00 | 0.00 | 83 | 1013.2 |
| 20260906044531 | 80 | 249 | 2.0 | 5.0 | 0.00 | 0.00 | 0.00 | 83 | 1013.3 |
| 20260906044026 | 80 | 244 | 4.0 | 6.0 | 0.00 | 0.00 | 0.00 | 83 | 1013.4 |
| 20260906043522 | 80 | 242 | 2.0 | 4.0 | 0.00 | 0.00 | 0.00 | 82 | 1013.4 |
| 20260906043018 | 80 | 255 | 4.0 | 5.0 | 0.00 | 0.00 | 0.00 | 82 | 1013.4 |
| 20260906042516 | 80 | 256 | 5.0 | 7.0 | 0.00 | 0.00 | 0.00 | 82 | 1013.4 |
| 20260906042011 | 80 | 212 | 2.0 | 4.0 | 0.00 | 0.00 | 0.00 | 81 | 1013.5 |
| 20260906041508 | 80 | 249 | 3.0 | 5.0 | 0.00 | 0.00 | 0.00 | 81 | 1013.5 |
| 20260906041007 | 80 | 229 | 2.0 | 6.0 | 0.00 | 0.00 | 0.00 | 80 | 1013.4 |
| 20260906040502 | 81 | 203 | 5.0 | 6.0 | 0.00 | 0.00 | 0.00 | 80 | 1013.2 |
| 20260906035957 | 81 | 197 | 6.0 | 9.0 | 0.00 | 0.00 | 0.00 | 79 | 1013.3 |
| 20260906035453 | 81 | 211 | 4.0 | 5.0 | 0.00 | 0.00 | 0.00 | 79 | 1013.5 |
| 20260906034948 | 81 | 254 | 3.0 | 6.0 | 0.00 | 0.00 | 0.00 | 78 | 1013.6 |
| 20260906034443 | 81 | 218 | 3.0 | 10.0 | 0.00 | 0.00 | 0.00 | 78 | 1013.5 |
| 20260906033938 | 81 | 252 | 3.0 | 6.0 | 0.00 | 0.00 | 0.00 | 78 | 1013.6 |
| 20260906033438 | 81 | 213 | 5.0 | 7.0 | 0.00 | 0.00 | 0.00 | 78 | 1013.5 |
| 20260906032934 | 81 | 219 | 4.0 | 4.0 | 0.00 | 0.00 | 0.00 | 78 | 1013.5 |
| 20260906032431 | 81 | 153 | 1.0 | 5.0 | 0.00 | 0.00 | 0.00 | 78 | 1013.5 |
| 20260906031930 | 81 | 241 | 2.0 | 5.0 | 0.00 | 0.00 | 0.00 | 79 | 1013.4 |
| 20260906031426 | 81 | 197 | 1.0 | 3.0 | 0.00 | 0.00 | 0.00 | 78 | 1013.4 |
| 20260906030921 | 81 | 151 | 2.0 | 5.0 | 0.00 | 0.00 | 0.00 | 79 | 1013.5 |
| 20260906030416 | 81 | 168 | 2.0 | 5.0 | 0.00 | 0.00 | 0.00 | 78 | 1013.7 |
| 20260906025911 | 81 | 221 | 0.0 | 4.0 | 0.00 | 0.00 | 0.00 | 78 | 1013.5 |
| 20260906025411 | 81 | 232 | 4.0 | 4.0 | 0.00 | 0.00 | 0.00 | 80 | 1013.4 |
| 20260906024909 | 81 | 236 | 0.0 | 2.0 | 0.00 | 0.00 | 0.00 | 79 | 1013.6 |
| 20260906024409 | 81 | 212 | 3.0 | 4.0 | 0.00 | 0.00 | 0.00 | 78 | 1013.6 |
| 20260906023904 | 81 | 204 | 1.0 | 3.0 | 0.00 | 0.00 | 0.00 | 79 | 1013.4 |
| 20260906023401 | 81 | 203 | 2.0 | 2.0 | 0.00 | 0.00 | 0.00 | 80 | 1013.4 |
| 20260906022900 | 81 | 124 | 3.0 | 3.0 | 0.00 | 0.00 | 0.00 | 80 | 1013.5 |
| 20260906022355 | 81 | 166 | 0.0 | 2.0 | 0.00 | 0.00 | 0.00 | 80 | 1013.4 |
| 20260906021851 | 81 | 147 | 2.0 | 2.0 | 0.00 | 0.00 | 0.00 | 79 | 1013.2 |
| 20260906021350 | 81 | 152 | 0.0 | 3.0 | 0.00 | 0.00 | 0.00 | 80 | 1013.4 |
| 20260906020845 | 80 | 213 | 0.0 | 3.0 | 0.00 | 0.00 | 0.00 | 79 | 1013.6 |
| 20260906020345 | 81 | 213 | 2.0 | 4.0 | 0.00 | 0.00 | 0.00 | 79 | 1013.3 |
| 20260906015839 | 81 | 156 | 2.0 | 3.0 | 0.00 | 0.00 | 0.00 | 79 | 1013.6 |
| 20260906015339 | 81 | 192 | 0.0 | 2.0 | 0.00 | 0.00 | 0.00 | 79 | 1013.5 |
| 20260906014839 | 81 | 183 | 2.0 | 3.0 | 0.00 | 0.00 | 0.00 | 79 | 1013.8 |
| 20260906014333 | 81 | 233 | 0.0 | 4.0 | 0.00 | 0.00 | 0.00 | 79 | 1013.4 |
| 20260906013830 | 81 | 152 | 2.0 | 4.0 | 0.00 | 0.00 | 0.00 | 78 | 1013.3 |
| 20260906013325 | 81 | 231 | 2.0 | 4.0 | 0.00 | 0.00 | 0.00 | 79 | 1013.4 |
| 20260906012820 | 81 | 205 | 6.0 | 7.0 | 0.00 | 0.00 | 0.00 | 79 | 1013.3 |
| 20260906012321 | 81 | 218 | 0.0 | 4.0 | 0.00 | 0.00 | 0.00 | 82 | 1013.3 |
| 20260906011815 | 81 | 176 | 0.0 | 3.0 | 0.00 | 0.00 | 0.00 | 81 | 1013.3 |
| 20260906011315 | 81 | 128 | 4.0 | 5.0 | 0.00 | 0.00 | 0.00 | 80 | 1013.1 |
| 20260906010812 | 82 | 221 | 4.0 | 5.0 | 0.00 | 0.00 | 0.00 | 80 | 1013.2 |
| 20260906010308 | 82 | 192 | 3.0 | 3.0 | 0.00 | 0.00 | 0.00 | 79 | 1013.0 |
| 20260906005802 | 82 | 175 | 2.0 | 3.0 | 0.00 | 0.00 | 0.00 | 78 | 1013.2 |
| 20260906005301 | 83 | 212 | 5.0 | 6.0 | 0.00 | 0.00 | 0.00 | 77 | 1012.9 |
| 20260906004800 | 83 | 218 | 1.0 | 4.0 | 0.00 | 0.00 | 0.00 | 77 | 1012.9 |
| 20260906004255 | 83 | 228 | 2.0 | 2.0 | 0.00 | 0.00 | 0.00 | 76 | 1012.9 |
| 20260906003756 | 83 | 153 | 1.0 | 2.0 | 0.00 | 0.00 | 0.00 | 76 | 1012.8 |
| 20260906003251 | 83 | 106 | 4.0 | 5.0 | 0.00 | 0.00 | 0.00 | 74 | 1013.1 |
| 20260906002747 | 83 | 164 | 2.0 | 3.0 | 0.00 | 0.00 | 0.00 | 75 | 1012.7 |
| 20260906002246 | 83 | 176 | 0.0 | 2.0 | 0.00 | 0.00 | 0.00 | 75 | 1012.8 |
| 20260906001742 | 83 | 141 | 0.0 | 2.0 | 0.00 | 0.00 | 0.00 | 75 | 1012.6 |
| 20260906001237 | 83 | 133 | 1.0 | 3.0 | 0.00 | 0.00 | 0.00 | 76 | 1012.5 |
| 20260906000732 | 83 | 144 | 0.0 | 2.0 | 0.00 | 0.00 | 0.00 | 75 | 1012.7 |
| 20260906000234 | 83 | 132 | 0.0 | 2.0 | 0.00 | 0.00 | 0.00 | 75 | 1012.5 |
| 20260905235727 | 84 | 161 | 1.0 | 2.0 | 0.00 | 0.00 | 0.00 | 75 | 1012.5 |
| 20260905235221 | 84 | 42 | 0.0 | 1.0 | 0.00 | 0.00 | 0.00 | 74 | 1012.3 |
| 20260905234717 | 84 | 76 | 1.0 | 3.0 | 0.00 | 0.00 | 0.00 | 73 | 1012.4 |
| 20260905234212 | 85 | 126 | 2.0 | 4.0 | 0.00 | 0.00 | 0.00 | 72 | 1012.5 |
| 20260905233713 | 86 | 129 | 2.0 | 3.0 | 0.00 | 0.00 | 0.00 | 68 | 1012.6 |
| 20260905233212 | 86 | 212 | 0.0 | 1.0 | 0.00 | 0.00 | 0.00 | 67 | 1012.8 |
| 20260905232707 | 86 | 239 | 0.0 | 2.0 | 0.00 | 0.00 | 0.00 | 66 | 1012.5 |
| 20260905232203 | 86 | 88 | 1.0 | 1.0 | 0.00 | 0.00 | 0.00 | 66 | 1012.4 |
| 20260905231658 | 86 | 227 | 0.0 | 1.0 | 0.00 | 0.00 | 0.00 | 65 | 1012.5 |
| 20260905231154 | 87 | 110 | 0.0 | 2.0 | 0.00 | 0.00 | 0.00 | 64 | 1012.3 |
| 20260905230650 | 87 | 151 | 1.0 | 2.0 | 0.00 | 0.00 | 0.00 | 64 | 1012.5 |
| 20260905230148 | 87 | 3 | 1.0 | 2.0 | 0.00 | 0.00 | 0.00 | 64 | 1012.6 |
| 20260905225647 | 87 | 131 | 1.0 | 2.0 | 0.00 | 0.00 | 0.00 | 63 | 1012.8 |
| 20260905225142 | 88 | 292 | 1.0 | 1.0 | 0.00 | 0.00 | 0.00 | 64 | 1012.5 |
| 20260905224641 | 88 | 301 | 0.0 | 1.0 | 0.00 | 0.00 | 0.00 | 63 | 1012.9 |
| 20260905224136 | 88 | 192 | 1.0 | 1.0 | 0.00 | 0.00 | 0.00 | 64 | 1012.6 |
| 20260905223633 | 88 | 341 | 0.0 | 1.0 | 0.00 | 0.00 | 0.00 | 63 | 1012.6 |
| 20260905223129 | 89 | 114 | 0.0 | 2.0 | 0.00 | 0.00 | 0.00 | 65 | 1012.5 |
| 20260905222625 | 88 | 8 | 0.0 | 1.0 | 0.00 | 0.00 | 0.00 | 64 | 1012.5 |
| 20260905222120 | 88 | 331 | 0.0 | 2.0 | 0.00 | 0.00 | 0.00 | 65 | 1012.4 |
| 20260905221615 | 88 | 201 | 0.0 | 3.0 | 0.00 | 0.00 | 0.00 | 62 | 1012.5 |
| 20260905221111 | 88 | 110 | 0.0 | 2.0 | 0.00 | 0.00 | 0.00 | 62 | 1012.4 |
| 20260905220607 | 89 | 180 | 0.0 | 2.0 | 0.00 | 0.00 | 0.00 | 62 | 1012.4 |
| 20260905220103 | 90 | 130 | 1.0 | 2.0 | 0.00 | 0.00 | 0.00 | 60 | 1012.5 |
| 20260905215602 | 90 | 47 | 1.0 | 3.0 | 0.00 | 0.00 | 0.00 | 60 | 1012.2 |
| 20260905215058 | 90 | 24 | 2.0 | 3.0 | 0.00 | 0.00 | 0.00 | 62 | 1012.2 |
| 20260905214555 | 90 | 135 | 1.0 | 4.0 | 0.00 | 0.00 | 0.00 | 61 | 1012.6 |
| 20260905214054 | 91 | 259 | 0.0 | 3.0 | 0.00 | 0.00 | 0.00 | 62 | 1012.4 |
| 20260905213549 | 90 | 129 | 2.0 | 4.0 | 0.00 | 0.00 | 0.00 | 62 | 1012.6 |
| 20260905213045 | 90 | 84 | 5.0 | 6.0 | 0.00 | 0.00 | 0.00 | 62 | 1012.6 |
| 20260905212545 | 89 | 254 | 2.0 | 3.0 | 0.00 | 0.00 | 0.00 | 64 | 1012.4 |
| 20260905212045 | 90 | 93 | 2.0 | 3.0 | 0.00 | 0.00 | 0.00 | 64 | 1012.6 |
| 20260905211540 | 90 | 329 | 2.0 | 6.0 | 0.00 | 0.00 | 0.00 | 64 | 1012.4 |
| 20260905211036 | 89 | 115 | 2.0 | 5.0 | 0.00 | 0.00 | 0.00 | 65 | 1012.5 |
| 20260905210531 | 89 | 241 | 0.0 | 3.0 | 0.00 | 0.00 | 0.00 | 65 | 1012.7 |
| 20260905210026 | 89 | 151 | 1.0 | 5.0 | 0.00 | 0.00 | 0.00 | 64 | 1012.6 |
| 20260905205525 | 90 | 33 | 2.0 | 3.0 | 0.00 | 0.00 | 0.00 | 64 | 1013.0 |
| 20260905205024 | 89 | 214 | 0.0 | 3.0 | 0.00 | 0.00 | 0.00 | 64 | 1012.7 |
| 20260905204519 | 89 | 271 | 4.0 | 4.0 | 0.00 | 0.00 | 0.00 | 62 | 1012.9 |
| 20260905204015 | 89 | 77 | 2.0 | 4.0 | 0.00 | 0.00 | 0.00 | 63 | 1012.8 |
| 20260905203509 | 89 | 153 | 2.0 | 5.0 | 0.00 | 0.00 | 0.00 | 61 | 1013.0 |
| 20260905203005 | 89 | 278 | 2.0 | 3.0 | 0.00 | 0.00 | 0.00 | 58 | 1012.9 |
| 20260905202459 | 89 | 303 | 1.0 | 3.0 | 0.00 | 0.00 | 0.00 | 56 | 1013.1 |
| 20260905201956 | 91 | 245 | 1.0 | 3.0 | 0.00 | 0.00 | 0.00 | 58 | 1012.9 |